Provincetown, Massachusetts, United States (02657)
Lat: 42.06N, Lon: 70.18W
Wx Zone: MAZ022
Local Info
Past Weather Observations for Today

NOTE: This archive is for the closest National Weather Service station to Provincetown. Information may differ from the station used for current weather conditions.

Click here for Long-term Archive

Time Weather Temperature Dewpoint Humidity Pressure Winds Precip Visibility
16:35
Clear
54°F / 12°C 41°F / 5°C 63% 30.12 in
(1020 mb)
S 15 mph
(S 24 kph)
- 10SM
16:15
Clear
55°F / 13°C 41°F / 5°C 59% 30.12 in
(1020 mb)
S 17.3 mph
(S 28 kph)
- 10SM
15:55
Clear
55°F / 13°C 41°F / 5°C 59% 30.09 in
(1019 mb)
S 17.3 mph
(S 28 kph)
- 10SM
15:35
Clear
55°F / 13°C 41°F / 5°C 59% 30.09 in
(1019 mb)
S 18.4 mph
(S 30 kph)
- 10SM
15:15
Clear
57°F / 14°C 39°F / 4°C 51% 30.09 in
(1019 mb)
S 17.3 mph
(S 28 kph)
- 10SM
14:55
Clear
57°F / 14°C 41°F / 5°C 55% 30.09 in
(1019 mb)
S 18.4 mph
(S 30 kph)
- 10SM
14:35
Clear
57°F / 14°C 43°F / 6°C 59% 30.09 in
(1019 mb)
S 17.3 mph
(S 28 kph)
- 10SM
14:15
Clear
59°F / 15°C 43°F / 6°C 55% 30.09 in
(1019 mb)
S 15 mph
(S 24 kph)
- 10SM
13:55
Clear
57°F / 14°C 43°F / 6°C 59% 30.09 in
(1019 mb)
S 19.6 mph
(S 32 kph)
- 10SM
13:35
Clear
59°F / 15°C 45°F / 7°C 59% 30.09 in
(1019 mb)
S 18.4 mph
(S 30 kph)
- 10SM
13:15
Clear
57°F / 14°C 43°F / 6°C 59% 30.09 in
(1019 mb)
S 13.8 mph
(S 22 kph)
- 10SM
12:55
Clear
59°F / 15°C 43°F / 6°C 55% 30.09 in
(1019 mb)
S 20.7 mph
(S 33 kph)
- 10SM
12:35
Clear
59°F / 15°C 43°F / 6°C 55% 30.09 in
(1019 mb)
S 17.3 mph
(S 28 kph)
- 10SM
12:15
Clear
59°F / 15°C 43°F / 6°C 55% 30.09 in
(1019 mb)
S 13.8 mph
(S 22 kph)
- 10SM
11:55
Clear
61°F / 16°C 43°F / 6°C 52% 30.09 in
(1019 mb)
S 12.7 mph
(S 20 kph)
- 10SM
11:35
Clear
61°F / 16°C 45°F / 7°C 55% 30.09 in
(1019 mb)
SSE 16.1 mph
(SSE 26 kph)
- 10SM
11:15
Partly Cloudy
59°F / 15°C 45°F / 7°C 59% 30.09 in
(1019 mb)
SSE 12.7 mph
(SSE 20 kph)
- 10SM
10:55
Mostly Cloudy
57°F / 14°C 45°F / 7°C 63% 30.09 in
(1019 mb)
S 15 mph
(S 24 kph)
- 10SM
10:35
Partly Cloudy
59°F / 15°C 45°F / 7°C 59% 30.09 in
(1019 mb)
S 16.1 mph
(S 26 kph)
- 10SM
10:15
Partly Cloudy
59°F / 15°C 43°F / 6°C 55% 30.09 in
(1019 mb)
S 11.5 mph
(S 19 kph)
- 10SM
09:55
Mostly Cloudy
55°F / 13°C 43°F / 6°C 63% 30.09 in
(1019 mb)
S 10.4 mph
(S 17 kph)
- 10SM
09:35
Partly Cloudy
57°F / 14°C 39°F / 4°C 51% 30.09 in
(1019 mb)
S 11.5 mph
(S 19 kph)
- 10SM
09:15
Clear
57°F / 14°C 43°F / 6°C 59% 30.09 in
(1019 mb)
S 10.4 mph
(S 17 kph)
- 10SM
08:55
Clear
55°F / 13°C 43°F / 6°C 63% 30.09 in
(1019 mb)
S 11.5 mph
(S 19 kph)
- 10SM
08:35
Clear
55°F / 13°C 43°F / 6°C 63% 30.09 in
(1019 mb)
S 9.2 mph
(S 15 kph)
- 10SM
08:15
Clear
54°F / 12°C 43°F / 6°C 67% 30.09 in
(1019 mb)
S 12.7 mph
(S 20 kph)
- 10SM
07:55
Clear
52°F / 11°C 43°F / 6°C 72% 30.09 in
(1019 mb)
S 11.5 mph
(S 19 kph)
- 10SM
07:35
Clear
52°F / 11°C 43°F / 6°C 72% 30.09 in
(1019 mb)
S 10.4 mph
(S 17 kph)
- 10SM
07:15
Clear
50°F / 10°C 45°F / 7°C 82% 30.09 in
(1019 mb)
S 11.5 mph
(S 19 kph)
- 10SM
06:55
Clear
48°F / 9°C 45°F / 7°C 87% 30.09 in
(1019 mb)
S 10.4 mph
(S 17 kph)
- 10SM
06:35
Partly Cloudy
48°F / 9°C 45°F / 7°C 87% 30.06 in
(1018 mb)
S 9.2 mph
(S 15 kph)
- 10SM
06:15
Partly Cloudy
46°F / 8°C 45°F / 7°C 93% 30.06 in
(1018 mb)
S 9.2 mph
(S 15 kph)
- 10SM
05:55
Clear
45°F / 7°C 43°F / 6°C 93% 30.06 in
(1018 mb)
S 10.4 mph
(S 17 kph)
- 10SM
05:35
Clear
45°F / 7°C 45°F / 7°C 100% 30.06 in
(1018 mb)
S 9.2 mph
(S 15 kph)
- 10SM
05:15
Partly Cloudy
45°F / 7°C 43°F / 6°C 93% 30.06 in
(1018 mb)
S 8.1 mph
(S 13 kph)
- 10SM
04:55
Partly Cloudy
45°F / 7°C 43°F / 6°C 93% 30.06 in
(1018 mb)
S 8.1 mph
(S 13 kph)
- 10SM
04:35
Clear
43°F / 6°C 43°F / 6°C 100% 30.04 in
(1017 mb)
S 9.2 mph
(S 15 kph)
- 10SM
04:15
Clear
43°F / 6°C 41°F / 5°C 93% 30.06 in
(1018 mb)
S 8.1 mph
(S 13 kph)
- 10SM
03:55
Clear
43°F / 6°C 43°F / 6°C 100% 30.06 in
(1018 mb)
S 6.9 mph
(S 11 kph)
0.01 in
(0.25 mm)
10SM
03:35
Clear
43°F / 6°C 41°F / 5°C 93% 30.04 in
(1017 mb)
S 6.9 mph
(S 11 kph)
0.01 in
(0.25 mm)
10SM
03:15
Clear
43°F / 6°C 39°F / 4°C 87% 30.04 in
(1017 mb)
S 5.8 mph
(S 9 kph)
0.01 in
(0.25 mm)
10SM
02:55
Clear
41°F / 5°C 39°F / 4°C 93% 30.04 in
(1017 mb)
S 5.8 mph
(S 9 kph)
- 10SM
02:35
Clear
41°F / 5°C 39°F / 4°C 93% 30.04 in
(1017 mb)
S 5.8 mph
(S 9 kph)
- 10SM
02:15
Mostly Cloudy
41°F / 5°C 39°F / 4°C 93% 30.04 in
(1017 mb)
S 4.6 mph
(S 7 kph)
- 4SM
01:55
Overcast
41°F / 5°C 39°F / 4°C 93% 30.04 in
(1017 mb)
S 5.8 mph
(S 9 kph)
- 3/4SM
01:35
Overcast
41°F / 5°C 39°F / 4°C 93% 30.04 in
(1017 mb)
S 4.6 mph
(S 7 kph)
- 1/2SM
01:15
Clear
41°F / 5°C 39°F / 4°C 93% 30.04 in
(1017 mb)
S 5.8 mph
(S 9 kph)
- 10SM
00:55
Clear
41°F / 5°C 39°F / 4°C 93% 30.04 in
(1017 mb)
S 5.8 mph
(S 9 kph)
- 10SM
00:35
Clear
41°F / 5°C 39°F / 4°C 93% 30.04 in
(1017 mb)
SSE 5.8 mph
(SSE 9 kph)
- 10SM
00:15
Clear
39°F / 4°C 37°F / 3°C 93% 30.04 in
(1017 mb)
SSE 5.8 mph
(SSE 9 kph)
- 10SM
Time Weather Temperature Dewpoint Humidity Pressure Winds Precip Visibility


Weather for websites

WeatherForYou.com, LLC is not responsible for any damages or problems caused by this service. Current weather conditions are obtained from the closest station including government and personal stations which may have varying degrees of accuracy. Weather forecasts are derived from the NOAA NDFD. Like all things, this site belongs to Jesus Christ... He just trusts us to maintain it. If you have any questions or comments email webmaster@weatherforyou.com

Copyright © 2015, WeatherForYou.com LLC. All rights reserved.